FW0525 Weather Reports


time (UTC)temp
F
wind
direction
speed
knots
gust
knots
rain 1hr
in
rain 24hr
in
rain mn
in
humidity
%
barometer
mb
20220629041413 78 136 0.0 0.0 0.00 0.12 0.00 91 1021.4
20220629040916 79 136 0.0 0.0 0.00 0.12 0.00 90 1021.3
20220629040415 79 136 0.0 0.9 0.00 0.12 0.00 90 1021.3
20220629035913 79 136 0.0 0.9 0.00 0.12 0.12 89 1021.4
20220629035412 79 121 0.0 0.9 0.00 0.12 0.12 89 1021.5
20220629034912 79 121 0.0 0.9 0.00 0.12 0.12 89 1021.4
20220629034412 79 160 0.0 0.9 0.00 0.12 0.12 89 1021.4
20220629033913 80 160 0.0 0.9 0.00 0.12 0.12 89 1021.3
20220629033412 80 104 0.0 1.7 0.00 0.12 0.12 89 1021.2
20220629032913 80 122 0.0 1.7 0.00 0.12 0.12 89 1021.2
20220629032412 80 86 0.0 2.6 0.00 0.12 0.12 89 1021.0
20220629031913 80 61 0.0 2.6 0.00 0.12 0.12 89 1020.8
20220629031414 80 103 0.0 1.7 0.00 0.12 0.12 89 1020.8
20220629030912 79 136 0.0 1.7 0.00 0.12 0.12 89 1020.9
20220629030410 80 129 0.0 1.7 0.00 0.12 0.12 89 1021.1
20220629025910 80 83 0.0 1.7 0.00 0.12 0.12 90 1021.2
20220629025411 80 120 0.0 0.0 0.00 0.12 0.12 89 1021.3
20220629024910 80 120 0.0 0.0 0.00 0.12 0.12 89 1021.2
20220629024408 80 120 0.0 0.0 0.00 0.12 0.12 89 1021.2
20220629023902 80 115 0.0 0.9 0.00 0.13 0.12 89 1021.2
20220629023405 80 115 0.0 0.9 0.00 0.15 0.12 89 1021.1
20220629022903 80 127 0.0 0.9 0.00 0.15 0.12 89 1021.1
20220629022403 80 139 0.0 2.6 0.00 0.15 0.12 88 1021.1
20220629021902 80 137 0.0 2.6 0.00 0.15 0.12 88 1021.2
20220629021402 80 119 0.0 1.7 0.00 0.15 0.12 88 1021.1
20220629020900 80 108 0.0 2.6 0.00 0.15 0.12 88 1020.9
20220629020359 80 182 0.0 3.5 0.00 0.15 0.12 88 1020.8
20220629015858 80 116 0.0 3.5 0.00 0.15 0.12 87 1020.7
20220629015358 81 137 0.0 3.5 0.00 0.15 0.12 87 1020.7
20220629014857 81 133 0.9 3.5 0.00 0.15 0.12 87 1020.6
20220629014359 81 143 0.9 3.5 0.00 0.15 0.12 86 1020.7
20220629013859 81 124 0.0 2.6 0.00 0.15 0.12 86 1020.7
20220629013400 81 113 0.0 1.7 0.00 0.15 0.12 86 1020.6
20220629012856 81 127 0.0 1.7 0.00 0.15 0.12 85 1020.5
20220629012358 81 179 0.0 3.5 0.00 0.15 0.12 86 1020.6
20220629011856 81 150 0.9 3.5 0.00 0.15 0.12 85 1020.8
20220629011352 81 157 0.0 2.6 0.00 0.15 0.12 85 1020.7
20220629010843 81 79 0.0 1.7 0.00 0.15 0.12 85 1020.6
20220629010338 81 120 0.0 1.7 0.00 0.15 0.12 85 1020.5
20220629005831 81 153 0.0 1.7 0.00 0.15 0.12 84 1020.5
20220629005326 81 104 0.0 3.5 0.00 0.15 0.12 84 1020.4
20220629004821 82 117 0.9 5.2 0.00 0.15 0.12 83 1020.2
20220629004315 82 139 0.9 6.1 0.00 0.15 0.12 83 1020.1
20220629003812 82 97 0.9 6.1 0.00 0.15 0.12 83 1020.2
20220629003302 82 116 0.9 4.3 0.00 0.15 0.12 83 1020.1
20220629002756 82 115 0.9 3.5 0.00 0.15 0.12 83 1020.0
20220629002252 82 124 1.7 5.2 0.00 0.15 0.12 83 1020.0
20220629001745 83 98 1.7 7.0 0.00 0.15 0.12 83 1020.0
20220629001241 83 92 2.6 7.0 0.00 0.15 0.12 83 1020.0
20220629000732 83 62 2.6 5.2 0.00 0.15 0.12 83 1019.9
20220629000227 83 116 1.7 7.0 0.00 0.15 0.12 83 1019.7
20220628235722 83 76 1.7 7.0 0.00 0.15 0.12 83 1019.7
20220628235213 83 98 1.7 6.1 0.00 0.15 0.12 83 1019.7
20220628234707 83 94 2.6 7.0 0.00 0.15 0.12 82 1019.5
20220628234203 84 58 3.5 8.7 0.00 0.15 0.12 82 1019.5
20220628233655 84 137 2.6 8.7 0.00 0.15 0.12 81 1019.5
20220628233154 84 75 2.6 6.1 0.00 0.15 0.12 81 1019.6
20220628232644 85 66 3.5 10.4 0.00 0.15 0.12 80 1019.4
20220628232140 85 97 3.5 10.4 0.00 0.15 0.12 80 1019.5
20220628231633 85 110 2.6 7.8 0.00 0.15 0.12 80 1019.6
20220628231126 85 91 2.6 7.8 0.00 0.15 0.12 79 1019.5
20220628230622 86 93 2.6 7.0 0.00 0.15 0.12 78 1019.4
20220628230127 85 135 2.6 7.8 0.00 0.15 0.12 78 1019.5
20220628225608 86 134 2.6 7.8 0.00 0.15 0.12 76 1019.3
20220628225102 87 93 2.6 8.7 0.00 0.15 0.12 76 1019.3
20220628224556 87 100 2.6 8.7 0.00 0.15 0.12 75 1019.2
20220628224054 87 105 3.5 7.8 0.00 0.15 0.12 74 1019.1
20220628223544 87 135 3.5 8.7 0.00 0.15 0.12 75 1019.2
20220628223039 87 56 3.5 8.7 0.00 0.15 0.12 73 1019.1
20220628222531 87 56 3.5 8.7 0.00 0.15 0.12 74 1019.1
20220628222031 87 129 3.5 7.8 0.00 0.15 0.12 74 1019.2
20220628221521 88 84 3.5 7.8 0.00 0.15 0.12 74 1019.3
20220628221013 88 115 2.6 7.0 0.00 0.15 0.12 73 1019.3
20220628220520 88 72 2.6 7.0 0.00 0.15 0.12 75 1019.2
20220628220005 87 93 3.5 7.8 0.00 0.15 0.12 75 1019.2
20220628215456 87 66 3.5 9.6 0.00 0.15 0.12 72 1019.2
20220628214950 87 86 3.5 9.6 0.00 0.15 0.12 73 1019.1
20220628214444 88 70 3.5 7.8 0.00 0.15 0.12 72 1019.1
20220628213940 88 54 2.6 7.8 0.00 0.15 0.12 73 1019.2
20220628213434 88 82 2.6 7.0 0.00 0.15 0.12 72 1019.2
20220628212926 88 131 3.5 9.6 0.00 0.15 0.12 71 1019.2
20220628212425 88 98 4.3 9.6 0.00 0.15 0.12 71 1019.1
20220628211917 88 75 4.3 9.6 0.00 0.15 0.12 71 1019.1
20220628211407 89 57 3.5 7.8 0.00 0.15 0.12 69 1019.2
20220628210903 89 99 3.5 8.7 0.00 0.15 0.12 71 1019.2
20220628210356 89 82 3.5 8.7 0.00 0.15 0.12 70 1019.3
20220628205851 89 153 2.6 7.0 0.00 0.15 0.12 68 1019.4
20220628205344 89 113 2.6 7.8 0.00 0.15 0.12 69 1019.5
20220628204838 88 109 2.6 8.7 0.00 0.15 0.12 72 1019.3
20220628204334 88 111 3.5 8.7 0.00 0.15 0.12 73 1019.3
20220628203832 88 87 2.6 7.8 0.00 0.15 0.12 71 1019.4
20220628203329 88 129 2.6 7.8 0.00 0.15 0.12 73 1019.6
20220628202834 88 77 3.5 8.7 0.00 0.15 0.12 73 1019.5
20220628202330 89 68 2.6 8.7 0.00 0.15 0.12 72 1019.6
20220628201831 89 168 2.6 7.0 0.00 0.15 0.12 71 1019.4
20220628201331 89 224 3.5 6.1 0.00 0.15 0.12 75 1019.4
20220628200829 88 90 3.5 7.8 0.00 0.15 0.12 73 1019.5
20220628200329 89 75 2.6 8.7 0.00 0.15 0.12 71 1019.4
20220628195829 90 115 2.6 8.7 0.00 0.15 0.12 72 1019.4
20220628195332 89 123 4.3 11.3 0.00 0.15 0.12 71 1019.4
20220628194830 89 78 5.2 11.3 0.00 0.15 0.12 73 1019.3
20220628194332 89 83 5.2 11.3 0.00 0.15 0.12 73 1019.3
20220628193832 89 91 5.2 12.2 0.00 0.15 0.12 72 1019.1
20220628193325 90 72 4.3 12.2 0.00 0.15 0.12 70 1019.1
20220628192826 90 108 3.5 13.0 0.00 0.15 0.12 71 1019.1
20220628192328 90 85 4.3 13.0 0.00 0.15 0.12 71 1019.1
20220628191826 90 68 4.3 11.3 0.00 0.15 0.12 73 1019.4
20220628191326 90 98 4.3 10.4 0.00 0.15 0.12 70 1019.4
20220628190828 89 132 4.3 10.4 0.00 0.15 0.12 72 1019.6
20220628190330 89 113 4.3 9.6 0.00 0.15 0.12 72 1019.7
20220628185825 88 117 4.3 9.6 0.00 0.15 0.12 73 1019.6
20220628185325 88 85 3.5 7.8 0.00 0.15 0.12 75 1019.6
20220628184828 88 84 2.6 6.1 0.00 0.15 0.12 74 1019.6
20220628184325 88 60 2.6 9.6 0.00 0.15 0.12 75 1019.7
20220628183826 88 113 2.6 9.6 0.00 0.15 0.12 74 1019.8
20220628183329 88 100 1.7 6.1 0.00 0.15 0.12 74 1019.8
20220628182825 89 112 2.6 8.7 0.00 0.15 0.12 75 1019.9
20220628182327 89 105 2.6 8.7 0.00 0.15 0.12 74 1019.9
20220628181825 89 120 0.9 8.7 0.00 0.15 0.12 73 1019.8
20220628181325 88 152 0.0 2.6 0.00 0.15 0.12 80 1020.0
20220628180826 87 248 0.9 2.6 0.00 0.15 0.12 83 1019.9
20220628180325 86 226 0.9 2.6 0.00 0.15 0.12 82 1020.0
20220628175824 87 248 0.0 2.6 0.00 0.15 0.12 83 1020.1
20220628175323 86 250 0.0 1.7 0.00 0.15 0.12 81 1020.1
20220628174824 86 281 0.0 2.6 0.00 0.15 0.12 81 1020.1
20220628174325 87 233 0.0 3.5 0.00 0.15 0.12 80 1020.1
20220628173824 88 124 1.7 7.0 0.00 0.15 0.12 77 1020.2
20220628173324 88 148 1.7 7.8 0.00 0.15 0.12 76 1020.2
20220628172820 89 149 2.6 7.8 0.00 0.15 0.12 75 1020.2
20220628172321 90 96 1.7 6.1 0.00 0.15 0.12 73 1020.2
20220628171819 91 90 0.9 3.5 0.00 0.15 0.12 70 1020.1
20220628171319 91 87 0.0 2.6 0.00 0.15 0.12 69 1020.2
20220628170819 92 235 0.9 3.5 0.00 0.15 0.12 69 1020.3
20220628170319 91 94 0.9 4.3 0.00 0.15 0.12 68 1020.3
20220628165819 91 129 0.9 4.3 0.00 0.15 0.12 68 1020.2
20220628165322 91 195 0.9 5.2 0.00 0.15 0.12 71 1020.3
20220628164819 91 86 0.9 5.2 0.00 0.15 0.12 69 1020.3
20220628164317 90 216 0.9 3.5 0.03 0.15 0.12 71 1020.2
20220628163818 90 187 0.9 3.5 0.11 0.15 0.12 72 1020.3
20220628163318 89 125 0.0 2.6 0.11 0.15 0.12 73 1020.4
20220628162821 88 85 0.9 3.5 0.11 0.15 0.12 77 1020.4
20220628162320 87 232 0.9 3.5 0.11 0.15 0.12 76 1020.4
20220628161817 87 246 0.0 3.5 0.11 0.15 0.12 79 1020.4
20220628161319 86 174 0.0 3.5 0.11 0.15 0.12 81 1020.4
20220628160817 85 219 0.0 0.9 0.11 0.15 0.12 85 1020.4
20220628160318 84 27 0.0 0.9 0.11 0.15 0.12 90 1020.4
20220628155818 83 352 0.0 0.9 0.11 0.15 0.12 89 1020.3
20220628155318 83 310 0.0 1.7 0.11 0.15 0.12 90 1020.5
20220628154817 83 309 0.9 4.3 0.11 0.15 0.12 89 1020.5
20220628154319 84 210 0.9 4.3 0.08 0.12 0.11 85 1020.6
20220628153816 85 112 1.7 5.2 0.00 0.04 0.01 82 1020.5
20220628153310 84 143 1.7 5.2 0.00 0.04 0.01 83 1020.5
20220628152806 84 87 1.7 6.1 0.00 0.04 0.01 83 1020.5
20220628152300 84 78 2.6 7.0 0.00 0.04 0.01 81 1020.4
20220628151754 85 101 2.6 7.0 0.00 0.04 0.01 82 1020.4
20220628151246 86 107 1.7 7.0 0.00 0.04 0.01 81 1020.3
20220628150743 87 142 1.7 5.2 0.00 0.04 0.01 79 1020.3
20220628150236 87 236 1.7 5.2 0.00 0.04 0.01 81 1020.2
20220628145729 87 148 1.7 5.2 0.00 0.04 0.01 81 1020.1
20220628145223 86 72 1.7 5.2 0.00 0.04 0.01 82 1020.2
20220628144718 86 75 1.7 4.3 0.00 0.04 0.01 82 1020.2
20220628144212 85 110 0.9 4.3 0.00 0.04 0.01 82 1020.1
20220628143708 86 101 0.9 3.5 0.00 0.04 0.01 82 1020.1
20220628143200 86 151 0.9 3.5 0.00 0.04 0.01 81 1020.1
20220628142653 86 120 0.9 4.3 0.00 0.04 0.01 80 1020.1
20220628142149 86 124 0.9 4.3 0.00 0.04 0.01 79 1020.0
20220628141641 87 191 0.0 4.3 0.00 0.04 0.01 77 1020.0
20220628141136 88 209 0.9 4.3 0.00 0.04 0.01 78 1020.0
20220628140629 88 134 0.9 5.2 0.00 0.04 0.01 80 1019.9
20220628140123 87 72 1.7 5.2 0.00 0.04 0.01 82 1019.9
20220628135616 86 195 1.7 4.3 0.00 0.04 0.01 85 1019.9
20220628135110 85 67 1.7 4.3 0.00 0.04 0.01 85 1019.9
20220628134608 84 145 0.9 4.3 0.00 0.04 0.01 86 1019.8
20220628134058 84 142 0.9 3.5 0.00 0.04 0.01 86 1019.8
20220628133552 85 108 0.9 4.3 0.00 0.04 0.01 85 1019.9
20220628133046 85 104 0.9 4.3 0.00 0.04 0.01 84 1019.9
20220628132541 86 134 0.0 2.6 0.00 0.04 0.01 85 1019.8
20220628132034 86 110 0.9 2.6 0.00 0.04 0.01 85 1019.8
20220628131529 85 290 0.9 3.5 0.00 0.04 0.01 86 1019.7
20220628131023 85 250 0.9 3.5 0.00 0.04 0.01 87 1019.7
20220628130519 85 148 0.9 3.5 0.00 0.04 0.01 88 1019.6
20220628130011 84 159 0.9 3.5 0.00 0.04 0.01 86 1019.7
20220628125505 84 128 0.9 2.6 0.00 0.04 0.01 88 1019.6
20220628125003 83 120 0.9 2.6 0.00 0.04 0.01 88 1019.5
20220628124454 83 134 0.9 3.5 0.00 0.04 0.01 90 1019.6
20220628123949 83 131 0.9 3.5 0.00 0.04 0.01 89 1019.3
20220628123442 83 84 0.0 3.5 0.00 0.04 0.01 91 1019.2
20220628122934 83 108 0.0 2.6 0.00 0.04 0.01 90 1019.3
20220628122429 82 118 0.0 2.6 0.00 0.04 0.01 91 1019.2
20220628121922 82 194 0.0 1.7 0.00 0.04 0.01 91 1019.2
20220628121416 82 191 0.0 1.7 0.00 0.04 0.01 92 1019.0
20220628120912 81 94 0.0 0.0 0.00 0.04 0.01 93 1019.1
20220628120405 80 136 0.0 0.0 0.00 0.04 0.01 94 1019.0
20220628115901 80 88 0.0 0.0 0.00 0.04 0.01 95 1018.9
20220628115353 79 124 0.0 0.0 0.00 0.04 0.01 96 1018.7
20220628114848 78 131 0.0 0.9 0.00 0.04 0.01 97 1018.6
20220628114340 78 157 0.0 0.9 0.00 0.04 0.01 98 1018.6
20220628113834 77 113 0.0 0.9 0.00 0.04 0.01 98 1018.6
20220628113328 77 107 0.0 0.9 0.00 0.04 0.01 98 1018.5
20220628112822 77 117 0.0 0.0 0.00 0.04 0.01 98 1018.4
20220628112318 76 117 0.0 0.0 0.00 0.04 0.01 98 1018.5
20220628111815 77 117 0.0 0.0 0.00 0.04 0.01 99 1018.3
20220628111314 76 122 0.0 0.0 0.00 0.04 0.01 99 1018.4
20220628110812 75 122 0.0 0.0 0.00 0.04 0.01 98 1018.3
20220628110323 74 122 0.0 0.0 0.00 0.04 0.01 98 1018.3
20220628105813 74 122 0.0 0.0 0.00 0.04 0.01 98 1018.3
20220628105306 74 122 0.0 0.0 0.00 0.04 0.01 98 1018.2
20220628104806 73 122 0.0 0.0 0.00 0.05 0.01 98 1018.3
20220628104308 73 122 0.0 0.0 0.00 0.05 0.01 98 1018.3
20220628103806 73 122 0.0 0.0 0.00 0.05 0.01 98 1018.2
20220628103305 73 122 0.0 0.0 0.00 0.05 0.01 98 1018.2
20220628102802 73 122 0.0 0.0 0.00 0.05 0.01 98 1018.1
20220628102303 73 122 0.0 0.0 0.00 0.05 0.01 98 1018.0
20220628101804 73 122 0.0 0.0 0.00 0.05 0.01 98 1018.0
20220628101304 73 122 0.0 0.0 0.00 0.05 0.01 98 1017.9
20220628100758 73 122 0.0 0.0 0.00 0.05 0.01 98 1017.9
20220628100311 73 122 0.0 0.0 0.00 0.05 0.01 98 1017.9
20220628095800 73 122 0.0 0.0 0.00 0.05 0.01 98 1017.8
20220628095300 74 122 0.0 0.0 0.00 0.05 0.01 98 1017.7
20220628094801 74 122 0.0 0.0 0.00 0.05 0.01 98 1017.8
20220628094258 74 122 0.0 0.0 0.00 0.05 0.01 98 1017.8
20220628093758 74 122 0.0 0.0 0.00 0.05 0.01 98 1017.8
20220628093259 74 122 0.0 0.0 0.00 0.05 0.01 98 1017.8
20220628092800 73 122 0.0 0.0 0.00 0.05 0.01 98 1017.8
20220628092254 73 122 0.0 0.0 0.00 0.05 0.01 98 1017.8
20220628091754 74 122 0.0 0.0 0.00 0.05 0.01 98 1017.9
20220628091254 73 122 0.0 0.0 0.00 0.05 0.01 98 1018.0
20220628090754 74 122 0.0 0.0 0.00 0.05 0.01 98 1018.0
20220628090255 74 122 0.0 0.0 0.00 0.05 0.01 98 1018.0
20220628085755 74 122 0.0 0.0 0.00 0.05 0.01 98 1018.0
20220628085254 74 122 0.0 0.0 0.00 0.05 0.01 98 1017.9
20220628084754 74 122 0.0 0.0 0.00 0.05 0.01 98 1017.9
20220628084256 74 122 0.0 0.0 0.00 0.05 0.01 98 1017.8
20220628083750 74 122 0.0 0.0 0.00 0.05 0.01 98 1017.8
20220628083242 74 122 0.0 0.0 0.00 0.05 0.01 98 1017.8
20220628082742 74 122 0.0 0.0 0.00 0.05 0.01 98 1017.9
20220628082241 74 122 0.0 0.0 0.00 0.05 0.01 98 1017.8
20220628081740 74 122 0.0 0.0 0.00 0.05 0.01 98 1017.6
20220628081241 74 122 0.0 0.0 0.00 0.05 0.01 98 1017.6
20220628080736 74 122 0.0 0.0 0.00 0.05 0.01 98 1017.6
20220628080238 74 122 0.0 0.0 0.00 0.05 0.01 98 1017.6
20220628075737 74 122 0.0 0.0 0.00 0.05 0.01 98 1017.5
20220628075232 74 122 0.0 0.0 0.00 0.05 0.01 98 1017.6
20220628074732 74 122 0.0 0.0 0.00 0.05 0.01 98 1017.6
20220628074232 74 122 0.0 0.0 0.00 0.05 0.01 98 1017.6
20220628073731 74 122 0.0 0.0 0.00 0.05 0.01 98 1017.5
20220628073228 74 122 0.0 0.0 0.00 0.05 0.01 98 1017.6
20220628072728 74 122 0.0 0.0 0.00 0.05 0.01 98 1017.4
20220628072228 74 122 0.0 0.0 0.00 0.05 0.01 98 1017.3
20220628071725 74 122 0.0 0.0 0.00 0.05 0.01 98 1017.5
20220628071227 74 122 0.0 0.0 0.00 0.05 0.01 97 1017.5
20220628070722 74 122 0.0 0.0 0.00 0.05 0.01 97 1017.5
20220628070222 74 122 0.0 0.0 0.00 0.05 0.01 97 1017.6
20220628065719 74 122 0.0 0.0 0.00 0.05 0.01 97 1017.7
20220628065222 74 122 0.0 0.0 0.00 0.05 0.01 97 1017.6
20220628064714 74 121 0.0 0.0 0.00 0.05 0.01 97 1017.6
20220628064208 74 122 0.0 0.0 0.00 0.05 0.01 97 1017.7
20220628063702 74 122 0.0 0.0 0.00 0.05 0.01 97 1017.7
20220628063159 74 122 0.0 0.0 0.00 0.05 0.01 97 1017.8
20220628062651 75 122 0.0 0.0 0.00 0.05 0.01 97 1017.8
20220628062147 74 122 0.0 0.0 0.00 0.05 0.01 97 1017.7
20220628061642 75 122 0.0 0.0 0.00 0.05 0.01 97 1017.7
20220628061133 75 122 0.0 0.0 0.00 0.05 0.01 97 1017.6
20220628060627 75 122 0.0 0.0 0.00 0.05 0.01 97 1017.7
20220628060120 75 122 0.0 0.0 0.00 0.05 0.01 97 1017.7
20220628055615 75 122 0.0 0.0 0.00 0.05 0.01 97 1017.9
20220628055109 75 122 0.0 0.0 0.00 0.05 0.01 97 1017.9
20220628054603 75 121 0.0 0.0 0.00 0.05 0.01 97 1017.9
20220628054057 75 121 0.0 0.0 0.00 0.05 0.01 97 1017.8
20220628053552 75 122 0.0 0.0 0.00 0.05 0.01 97 1017.9
20220628053043 75 122 0.0 0.0 0.00 0.05 0.01 97 1018.0
20220628052541 75 121 0.0 0.0 0.01 0.05 0.01 97 1018.0
20220628052034 76 122 0.0 0.0 0.01 0.05 0.01 97 1018.1
20220628051534 76 122 0.0 0.0 0.01 0.05 0.01 97 1018.1
20220628051034 76 122 0.0 0.0 0.01 0.05 0.01 97 1018.1
20220628050530 76 122 0.0 0.0 0.01 0.05 0.01 97 1018.0
20220628050041 76 122 0.0 0.0 0.01 0.05 0.01 97 1018.1
20220628045532 76 122 0.0 0.0 0.01 0.05 0.01 97 1018.3
20220628045030 76 121 0.0 0.0 0.01 0.05 0.01 97 1018.3
20220628044528 76 122 0.0 0.0 0.01 0.05 0.01 97 1018.3
20220628044026 76 122 0.0 0.0 0.01 0.05 0.01 97 1018.5
20220628043525 76 122 0.0 0.0 0.01 0.05 0.01 97 1018.5
20220628043033 76 122 0.0 0.0 0.01 0.05 0.01 97 1018.5
20220628042524 76 122 0.0 0.0 0.00 0.04 0.01 97 1018.5
20220628042024 76 122 0.0 0.0 0.00 0.04 0.00 96 1018.7